Meteo pe oră la Allinges

Astăzi, 23 Ianuarie, Sâmbătă

Timp Temperatura Precipitaţii Vânt Presiune Umiditate
00:00 0°C° 1.8 mm 3 m/s 697 mmHg 98%
01:00 0°C° 0.6 mm 3 m/s 698 mmHg 97%
02:00 +1°C° 0.6 mm 2 m/s 698 mmHg 97%
03:00 -1°C° 0.6 mm 2 m/s 699 mmHg 96%
04:00 -1°C° 0 mm 2 m/s 699 mmHg 95%
05:00 -2°C° 0 mm 2 m/s 698 mmHg 94%
06:00 -2°C° 0 mm 2 m/s 698 mmHg 92%
07:00 -2°C° 0 mm 2 m/s 698 mmHg 92%
08:00 -1°C° 0 mm 2 m/s 698 mmHg 91%
09:00 -1°C° 0 mm 2 m/s 698 mmHg 90%
10:00 +1°C° 0 mm 2 m/s 697 mmHg 89%
11:00 +2°C° 0 mm 2 m/s 697 mmHg 89%
12:00 +3°C° 0 mm 2 m/s 696 mmHg 88%
13:00 +3°C° 0 mm 2 m/s 696 mmHg 88%
14:00 +3°C° 0 mm 2 m/s 695 mmHg 89%
15:00 +3°C° 0 mm 2 m/s 695 mmHg 90%
16:00 +2°C° 0.1 mm 2 m/s 695 mmHg 90%
17:00 +1°C° 0.1 mm 2 m/s 696 mmHg 91%
18:00 -2°C° 0.1 mm 2 m/s 696 mmHg 91%
19:00 -1°C° 1.1 mm 3 m/s 697 mmHg 93%
20:00 -1°C° 1.1 mm 3 m/s 697 mmHg 95%
21:00 -2°C° 1.1 mm 4 m/s 698 mmHg 97%
22:00 -2°C° 0.8 mm 4 m/s 698 mmHg 97%
23:00 -1°C° 0.8 mm 3 m/s 698 mmHg 97%

Mâine, 24 Ianuarie, Duminică

Timp Temperatura Precipitaţii Vânt Presiune Umiditate
00:00 -1°C° 0.8 mm 3 m/s 699 mmHg 96%
01:00 -2°C° 0.3 mm 3 m/s 699 mmHg 96%
02:00 -2°C° 0.3 mm 3 m/s 699 mmHg 96%
03:00 -2°C° 0.3 mm 3 m/s 699 mmHg 96%
04:00 -3°C° 0.1 mm 2 m/s 699 mmHg 95%
05:00 -4°C° 0.1 mm 2 m/s 700 mmHg 93%
06:00 -3°C° 0.1 mm 1 m/s 700 mmHg 92%
07:00 -2°C° 0 mm 1 m/s 700 mmHg 91%
08:00 -1°C° 0 mm 1 m/s 701 mmHg 90%
09:00 -1°C° 0 mm 1 m/s 701 mmHg 88%
10:00 0°C° 0 mm 1 m/s 700 mmHg 87%
11:00 -1°C° 0 mm 2 m/s 700 mmHg 87%
12:00 +1°C° 0 mm 2 m/s 700 mmHg 86%
13:00 0°C° 0 mm 3 m/s 700 mmHg 87%
14:00 0°C° 0 mm 3 m/s 699 mmHg 87%
15:00 0°C° 0 mm 3 m/s 699 mmHg 88%
16:00 -1°C° 0.4 mm 3 m/s 699 mmHg 90%
17:00 -1°C° 0.4 mm 3 m/s 700 mmHg 92%
18:00 -2°C° 0.4 mm 3 m/s 700 mmHg 94%
19:00 -2°C° 0.7 mm 3 m/s 700 mmHg 95%
20:00 -2°C° 0.7 mm 3 m/s 700 mmHg 95%
21:00 -2°C° 0.7 mm 3 m/s 700 mmHg 96%
22:00 -2°C° 1.2 mm 3 m/s 701 mmHg 96%
23:00 -3°C° 1.2 mm 4 m/s 701 mmHg 95%

Poimâine, 25 Ianuarie, Luni

Timp Temperatura Precipitaţii Vânt Presiune Umiditate
00:00 -3°C° 1.2 mm 4 m/s 702 mmHg 95%
01:00 -3°C° 0.8 mm 4 m/s 702 mmHg 95%
02:00 -4°C° 0.8 mm 4 m/s 703 mmHg 95%
03:00 -4°C° 0.8 mm 4 m/s 704 mmHg 95%
04:00 -4°C° 0.4 mm 4 m/s 704 mmHg 95%
05:00 -5°C° 0.4 mm 3 m/s 705 mmHg 95%
06:00 -6°C° 0.4 mm 3 m/s 706 mmHg 95%
07:00 -5°C° 0.2 mm 3 m/s 706 mmHg 95%
08:00 -5°C° 0.2 mm 3 m/s 707 mmHg 94%
09:00 -4°C° 0.2 mm 3 m/s 708 mmHg 94%
10:00 -2°C° 0.1 mm 3 m/s 708 mmHg 92%
11:00 -2°C° 0.1 mm 3 m/s 709 mmHg 89%
12:00 -2°C° 0.1 mm 4 m/s 709 mmHg 87%
13:00 -2°C° 0.2 mm 4 m/s 709 mmHg 88%
14:00 -1°C° 0.2 mm 3 m/s 709 mmHg 90%
15:00 -1°C° 0.2 mm 3 m/s 709 mmHg 91%
16:00 -2°C° 0.1 mm 3 m/s 710 mmHg 92%
17:00 -4°C° 0.1 mm 3 m/s 710 mmHg 92%
18:00 -4°C° 0.1 mm 3 m/s 711 mmHg 93%
19:00 -4°C° 0.2 mm 3 m/s 711 mmHg 93%
20:00 -5°C° 0.2 mm 3 m/s 711 mmHg 93%
21:00 -5°C° 0.2 mm 3 m/s 712 mmHg 93%
22:00 -5°C° 0.2 mm 3 m/s 712 mmHg 92%
23:00 -5°C° 0.2 mm 3 m/s 712 mmHg 91%

26 Ianuarie, Marţi

Timp Temperatura Precipitaţii Vânt Presiune Umiditate
00:00 -5°C° 0.2 mm 3 m/s 712 mmHg 90%
01:00 -4°C° 0.2 mm 2 m/s 712 mmHg 91%
02:00 -4°C° 0.2 mm 2 m/s 712 mmHg 92%
03:00 -4°C° 0.2 mm 2 m/s 712 mmHg 93%
04:00 -4°C° 0.3 mm 2 m/s 712 mmHg 94%
05:00 -4°C° 0.3 mm 2 m/s 712 mmHg 94%
06:00 -4°C° 0.3 mm 2 m/s 713 mmHg 95%
07:00 -3°C° 0.1 mm 2 m/s 713 mmHg 94%
08:00 -3°C° 0.1 mm 2 m/s 713 mmHg 94%
09:00 -2°C° 0.1 mm 2 m/s 714 mmHg 93%
10:00 -1°C° 0 mm 2 m/s 713 mmHg 93%
11:00 +1°C° 0 mm 2 m/s 713 mmHg 92%
12:00 +2°C° 0 mm 2 m/s 713 mmHg 92%
13:00 +2°C° 0 mm 2 m/s 713 mmHg 92%
14:00 +2°C° 0 mm 2 m/s 712 mmHg 92%
15:00 +2°C° 0 mm 2 m/s 712 mmHg 93%
16:00 +1°C° 0 mm 2 m/s 712 mmHg 91%
17:00 +1°C° 0 mm 2 m/s 712 mmHg 90%
18:00 +1°C° 0 mm 1 m/s 712 mmHg 88%
19:00 -1°C° 0.2 mm 2 m/s 712 mmHg 90%
20:00 -1°C° 0.2 mm 2 m/s 712 mmHg 91%
21:00 -1°C° 0.2 mm 2 m/s 712 mmHg 93%
22:00 0°C° 0.2 mm 3 m/s 712 mmHg 93%
23:00 0°C° 0.2 mm 3 m/s 712 mmHg 94%

27 Ianuarie, Miercuri

Timp Temperatura Precipitaţii Vânt Presiune Umiditate
00:00 0°C° 0.2 mm 3 m/s 712 mmHg 94%
01:00 +1°C° 0.2 mm 3 m/s 712 mmHg 95%
02:00 +1°C° 0.2 mm 3 m/s 711 mmHg 96%
03:00 +2°C° 0.2 mm 3 m/s 711 mmHg 97%
04:00 +2°C° 0.2 mm 3 m/s 711 mmHg 97%
05:00 +2°C° 0.2 mm 3 m/s 711 mmHg 98%
06:00 +3°C° 0.2 mm 3 m/s 712 mmHg 98%
07:00 +3°C° 0.2 mm 3 m/s 712 mmHg 98%
08:00 +4°C° 0.2 mm 2 m/s 713 mmHg 98%
09:00 +4°C° 0.2 mm 2 m/s 713 mmHg 99%
10:00 +4°C° 0.2 mm 2 m/s 713 mmHg 99%
11:00 +4°C° 0.2 mm 2 m/s 713 mmHg 99%
12:00 +4°C° 0.2 mm 2 m/s 714 mmHg 98%
13:00 +4°C° 0 mm 2 m/s 714 mmHg 98%
14:00 +4°C° 0 mm 2 m/s 714 mmHg 98%
15:00 +4°C° 0 mm 2 m/s 714 mmHg 98%
16:00 +3°C° 0 mm 2 m/s 714 mmHg 95%
17:00 +3°C° 0 mm 2 m/s 715 mmHg 93%
18:00 +2°C° 0 mm 2 m/s 715 mmHg 90%
19:00 +2°C° 0 mm 2 m/s 715 mmHg 87%
20:00 +2°C° 0 mm 1 m/s 715 mmHg 84%
21:00 +2°C° 0 mm 1 m/s 714 mmHg 81%
22:00 +2°C° 0 mm 1 m/s 714 mmHg 80%
23:00 +1°C° 0 mm 2 m/s 714 mmHg 79%

28 Ianuarie, Joi

Timp Temperatura Precipitaţii Vânt Presiune Umiditate
00:00 +1°C° 0 mm 2 m/s 713 mmHg 78%
01:00 +2°C° 0 mm 2 m/s 713 mmHg 79%
02:00 +3°C° 0 mm 2 m/s 713 mmHg 81%
03:00 +3°C° 0 mm 2 m/s 713 mmHg 82%
04:00 +2°C° 0.5 mm 3 m/s 713 mmHg 86%
05:00 +2°C° 0.5 mm 3 m/s 713 mmHg 90%
06:00 +2°C° 0.5 mm 3 m/s 713 mmHg 93%
07:00 +3°C° 0.1 mm 3 m/s 713 mmHg 94%
08:00 +3°C° 0.1 mm 3 m/s 713 mmHg 95%
09:00 +4°C° 0.1 mm 3 m/s 713 mmHg 96%
10:00 +4°C° 0 mm 3 m/s 712 mmHg 97%
11:00 +4°C° 0 mm 4 m/s 712 mmHg 97%
12:00 +5°C° 0 mm 4 m/s 712 mmHg 97%
13:00 +5°C° 0.6 mm 4 m/s 711 mmHg 97%
14:00 +5°C° 0.6 mm 5 m/s 711 mmHg 97%
15:00 +3°C° 0.6 mm 5 m/s 711 mmHg 98%
16:00 +4°C° 1.6 mm 4 m/s 711 mmHg 98%
17:00 +4°C° 1.6 mm 4 m/s 712 mmHg 97%
18:00 +4°C° 1.6 mm 3 m/s 712 mmHg 97%
Arată mai mult

Formular de consimțământ

Meteoprog și furnizorii noștri de servicii pot stoca și accesa date personale, precum cookies, identificatori de dispozitiv sau alte tehnologii similare pe dispozitivul dumneavoastră și procesa astfel de date pentru a personaliza conținutul și reclamele, dar și pentru a oferi caracteristici de social media și pentru a analiza traficul.

  • Stocarea și/sau accesarea informațiilor pe dispozitivul dumneavoastră

    Cookies, identificatori de dispozitiv sau alte informații pot fi stocate sau accesate pe dispozitiv în scopurile indicate mai sus.

  • Reclame și conținut personalizat, evaluarea reclamelor și a conținutului, informații despre audiențe și dezvoltarea produselor

    Reclamele și conținutul pot fi personalizate pe baza unui profil. Pot fi adăugate date suplimentare pentru a personaliza mai bine reclamele și conținutul. Performanța reclamelor și conținutului poate fi măsurată. Pot fi obținute informații despre utilizatorii care au văzut reclamele și conținutul. Aceste date pot fi utilizate pentru a dezvolta sau îmbunătăți experiența utilizatorilor, sistemele și software-ul.

Dând clic pe ‘Sunt de acord’, permiteți utilizarea cookie-urilor menționate, a identificatorilor de dispozitiv, balizelor web sau altor tehnologii similare. Setările pot fi modificate din browser-ul dispozitivului dumneavoastră.

În anumite scopuri, interesele legitime pot prima asupra consimțământului. Puteți citi mai multe informații în acest sens în Politica privind Confidențialitatea Datelor și Cookie.